Location: Arcones
(41.1182°N, 3.7238°W)
Time: 03:42:19
(UTC+00:00)

Cosmos 1782 - Pass Details

Date: 11 December 2025
Orbit: 464 x 476 km, 82.5° (Epoch: 13 January)

Event Time Altitude Azimuth Distance (km) Brightness Sun altitude
Rises 17:19:25 0° 198° (SSW) 2,519 6.9 -6.4°
Reaches altitude 10° 17:21:33 10° 203° (SSW) 1,644 6.0 -6.7°
Maximum altitude 17:25:03 50° 280° (W) 616 3.5 -7.3°
Drops below altitude 10° 17:28:34 10° 357° (N) 1,652 5.1 -7.9°
Sets 17:30:43 0° 3° (N) 2,532 5.9 -8.3°
